Location: Battery Park City
(40.7115°N, 74.0163°W)
Time: 12:59:42
(UTC+00:00)

Daily predictions for brighter satellites

Satellite Brightness Start Highest point End
(mag) Time Altitude Azimuth Time Altitude Azimuth Time Altitude Azimuth
Cosmos 1939 Rocket 3.3 21:51:05 10° SE 21:55:00 43° ENE 21:58:53 10° N
H-2A R/B 3.0 21:51:25 10° ESE 21:55:30 24° ENE 21:59:30 10° NNE
Cosmos 1656 3.7 21:51:29 10° NNW 21:57:03 77° ENE 22:02:40 10° SSE
FengYun 1-2 T 4.3 21:53:45 10° SSE 21:59:15 63° ENE 22:04:45 10° N
COSMO-SKYMED 1 4.2 21:58:45 10° NE 22:01:31 16° E 22:04:14 10° SE
USA 276 2.3 22:02:01 10° NW 22:05:04 50° NNE 22:08:07 10° ESE
Cosmos 1763 Rocket 3.4 22:00:37 10° SSW 22:05:40 87° ESE 22:10:49 10° NNE
Cosmos 2034 Rocket 4.1 22:01:58 10° S 22:08:07 87° W 22:14:19 10° N
Meteor PRIRODA 4.0 22:05:29 10° S 22:09:06 70° WSW 22:12:44 10° NNW
Cosmos 1697 Rocket 2.9 22:03:51 10° NNW 22:09:17 48° ENE 22:14:41 10° SE
Cosmos 841 Rocket 3.9 22:06:36 10° S 22:11:25 41° ESE 22:16:13 10° NNE
Cosmos 1980 Rocket 3.0 22:08:14 10° N 22:13:04 28° NE 22:17:51 10° ESE
Cosmos 2369 4.3 22:07:57 10° N 22:13:11 35° ENE 22:18:22 10° ESE
Cosmos 1602 4.0 22:13:20 10° N 22:17:03 45° E 22:20:45 10° SSE
Cosmos 1937 Rocket 3.8 22:12:30 10° N 22:17:37 45° ENE 22:22:41 10° SE
Meteor 1-25 Rocket 4.2 22:14:38 10° N 22:20:12 70° E 22:25:48 10° SSE
Cosmos 1782 3.1 22:16:58 10° SSE 22:20:47 45° E 22:24:37 10° NNE
Okean O Rocket 2.8 22:17:42 10° ESE 22:21:01 21° ENE 22:24:20 10° NNE
NOAA 6 4.0 22:16:50 10° SSE 22:21:58 80° ENE 22:27:07 10° N
SL-16 R/B 4.0 22:21:27 10° NNE 22:22:44 11° NE 22:23:10 11° NE
Cosmos 2082 Rocket 2.5 22:18:48 10° S 22:24:13 47° ESE 22:29:39 10° NE
Cosmos 1151 Rocket 3.9 22:20:59 10° SSE 22:24:37 27° E 22:28:18 10° NNE
Cosmos 1743 Rocket 3.6 22:20:56 10° N 22:25:16 84° W 22:29:36 10° S
Cosmos 990 Rocket 4.1 22:20:39 10° NNW 22:25:51 80° WSW 22:30:59 10° SSE
USA 267 4.0 22:20:55 10° NE 22:27:06 47° NNW 22:33:16 10° WSW
ISS -2.1 22:25:17 10° NNW 22:27:52 20° NNE 22:29:10 16° NE
Cosmos 1634 Rocket 4.0 22:23:20 10° S 22:29:34 65° E 22:35:50 10° NNE
CORIOLIS 4.1 22:24:20 10° SSE 22:29:43 83° ENE 22:35:10 10° NNW
CZ-4B DEB 4.2 22:25:30 10° SSE 22:31:00 73° ENE 22:36:29 10° N
Cosmos 372 Rocket 4.4 22:26:21 10° N 22:31:14 38° ENE 22:36:06 10° SE
Cosmos 1340 Rocket 4.0 22:30:44 10° NNW 22:34:39 47° W 22:38:33 10° SSW
CZ-2D R/B 3.2 22:31:55 10° SSE 22:35:41 57° ENE 22:39:27 10° N
Cosmos 1666 Rocket 4.2 22:32:38 10° NNE 22:36:40 33° ENE 22:40:39 10° SE
Cosmos 2278 4.4 22:32:29 10° N 22:37:32 31° ENE 22:42:32 10° ESE
Cosmos 1328 Rocket 4.4 22:35:47 10° SSE 22:39:35 29° E 22:42:12 16° NE
Cosmos 2026 Rocket 3.9 22:33:43 10° N 22:39:52 75° E 22:45:54 10° SSE
MOS 1-B Rocket 4.1 22:35:36 10° NNE 22:41:33 67° ESE 22:48:21 10° S
COSMOS 2406 3.5 22:36:47 10° SSW 22:42:32 73° WNW 22:48:17 10° NNE
Lacrosse 5 rocket 3.3 22:41:24 10° N 22:43:11 13° NNE 22:43:19 13° NNE
CZ-2C R/B 3.6 22:41:37 10° S 22:43:29 13° SSE 22:45:20 10° SE
USA 229 DEB 4.0 22:37:13 10° NW 22:44:42 88° SW 22:52:34 10° SSE
USA 229 4.0 22:37:19 10° NW 22:44:47 89° SW 22:52:39 10° SSE
ARGOS 3.5 22:41:30 10° SE 22:46:33 42° ENE 22:51:38 10° N
COSMOS 2455 2.8 22:41:38 10° SSW 22:47:39 89° ESE 22:53:25 11° NNE
Cosmos 1833 Rocket 3.5 22:42:36 10° SW 22:48:02 50° WNW 22:53:31 10° NNE
Cosmos 858 Rocket 4.4 22:44:22 10° NNW 22:49:41 81° ENE 22:54:56 10° SSE
SKYMED 2 3.7 22:45:34 10° NNE 22:49:51 54° E 22:54:05 10° S
Cosmos 1500 3.0 22:46:41 10° N 22:50:25 75° E 22:54:07 10° SSE
Meteor 2-14 Rocket 4.4 22:44:27 10° N 22:50:36 83° E 22:56:40 10° S
ATLAS CENTAUR R/B 3.8 22:40:58 10° WSW 22:51:13 49° NW 22:54:53 15° NNE
Landsat 5 3.9 22:50:05 22° NE 22:52:10 38° E 22:55:52 10° SSE
Meteor 2-6 Rocket 4.5 22:49:18 10° SSE 22:54:47 46° E 23:00:09 10° NNE
SL-08 RB Rocket 4.3 22:52:11 10° SE 22:56:20 33° ENE 23:00:28 10° N
PAYLOAD B 4.3 22:52:59 10° SSE 22:58:36 84° WSW 23:04:15 10° NNW
USA 234 3.3 22:52:24 10° SE 22:58:58 85° SW 23:05:32 10° NW
Cosmos 1570 Rocket 4.0 22:54:39 10° S 22:59:48 60° ESE 23:03:29 19° NNE
PSLV R/B 4.4 22:58:14 10° S 23:01:50 54° W 23:05:29 10° NNW
Cosmos 540 Rocket 4.3 22:57:01 10° SW 23:01:58 50° WNW 23:06:57 10° N
CZ-4B R/B 3.0 22:59:10 10° SSE 23:04:36 76° ENE 23:09:58 10° N
Sich 1 3.5 23:01:23 10° NNW 23:05:38 61° W 23:09:53 10° S
GEOS 3 Rocket 4.4 23:05:32 29° ENE 23:06:18 30° NE 23:10:48 10° NNW
Cosmos 1814 Rocket 3.9 23:01:40 10° SSW 23:06:54 81° ESE 23:10:55 17° NNE
Cosmos 44 Rocket 4.5 23:04:45 10° N 23:08:02 24° NNE 23:08:02 24° NNE
CZ-2C R/B 2.5 23:05:26 10° NNE 23:10:39 88° ESE 23:15:49 10° SSW
Cosmos 1818 4.3 23:06:15 10° NNW 23:11:04 30° NE 23:11:07 30° NE
GPS 2-04 Rocket1 3.8 23:07:33 10° WSW 23:11:23 38° S 23:12:58 26° SE
Meteor 2-8 Rocket 4.4 23:05:40 10° S 23:11:42 65° E 23:17:49 10° NNE
Meteor 2-21 Rocket 4.4 23:06:32 10° N 23:12:39 89° W 23:18:42 10° S
Meteor 1-10 Rocket 4.4 23:08:07 10° SSE 23:13:39 48° E 23:16:43 25° NNE
Cosmos 1900 4.3 23:09:18 10° SSW 23:14:04 61° ESE 23:15:36 40° NE
NOSS 2-2 (D) 4.4 23:08:50 10° NNW 23:14:21 77° NE 23:22:08 10° SE
deb Chang Zheng 4 3.5 23:12:36 10° SSE 23:16:55 85° WSW 23:21:15 10° NNW
CZ-4C R/B 3.9 23:18:26 33° SSE 23:18:26 33° SSE 23:20:32 10° S
Cosmos 1666 2.5 23:16:18 10° N 23:20:02 87° W 23:23:44 10° S
Cosmos 1515 Rocket 4.3 23:16:32 10° SSE 23:19:39 36° SE 23:19:39 36° SE
Feng Yun 1-1 Rocket 4.3 23:19:51 10° SSE 23:25:41 62° ENE 23:31:29 10° N
CZ-4C R/B 3.0 23:22:14 10° NNW 23:29:37 68° NE 23:36:22 17° SE
Cosmos 2360 Rocket 4.4 23:27:32 10° N 23:27:34 10° N 23:27:34 10° N
Cosmos 2208 Rocket 4.0 23:27:24 10° SSW 23:32:47 86° WNW 23:35:28 31° NNE
Cosmos 1812 4.2 23:30:15 10° SSW 23:33:49 36° WNW 23:36:51 13° NNW
H-2A R/B 3.3 23:29:47 10° SSW 23:34:41 41° W 23:39:29 10° NNW
COSMO-SKYMED 1 3.7 23:34:00 12° N 23:37:51 43° WNW 23:41:57 10° SW
Spot 2 4.3 23:41:50 10° SSE 23:46:56 80° ENE 23:52:05 10° N
Cosmos 921 Rocket 3.4 23:44:08 10° SSW 23:47:24 54° SSW 23:47:24 54° SSW
Cosmos 1633 Rocket 4.1 23:45:12 10° NNW 23:49:23 46° W 23:53:33 10° SSW
Cosmos 2322 Rocket 3.9 23:45:37 10° N 23:47:27 19° N 23:47:27 19° N
